Temperature
7 7 7 6 6 6 6 5 5 4 4 5 5 5 5 4 4 4 4 4 4 4 4 4 3 3 3 3 3 3 3 3 3 3 3 3 3 3
7 6 6 6 6 6 5 5 5 4 4 4 4 4 4 4 4 4 4 4 4 3 3 3 3 3 3 2 2 2 2 2 2 2 2 2 2 2
6 6 6 6 5 5 5 5 4 4 4 4 4 4 3 3 3 3 3 3 3 3 3 3 3 2 2 2 2 2 2 2 2 2 2 2 2 2
6 6 5 5 5 5 5 4 4 4 4 4 3 3 3 3 3 3 3 3 3 3 2 2 2 2 2 2 2 2 1 1 1 1 1 1 1 1
6 5 5 5 5 5 4 4 4 4 4 3 3 3 3 2 2 2 2 2 2 2 2 2 2 2 1 1 1 1 1 1 1 1 1 1 1 1
5 5 5 5 5 4 4 4 4 3 3 3 2 2 2 2 2 1 1 2 2 2 2 1 1 1 1 1 1 1 1 1 1 1 1 1 1 1
5 5 4 4 4 4 4 3 3 3 3 2 2 2 2 1 1 1 1 1 1 1 1 1 1 1 1 1 1 1 1 1 0 0 0 0 0 0
4 4 4 4 4 3 3 3 3 3 2 2 2 1 1 1 1 1 1 0 0 1 0 0 0 0 0 -0 0 0 0 0 0 0 -0 -0 -0 -0
4 4 4 3 3 3 3 3 3 3 2 2 2 1 1 1 1 1 0 0 -0 0 -0 0 0 -0 -0 -0 -0 -0 -0 -0 -0 -0 -0 -0 -0 -0
4 3 3 3 3 3 3 2 2 2 2 1 1 1 1 1 1 0 0 0 0 0 -0 -0 -0 -0 -0 -1 -0 -0 -0 -0 -1 -1 -1 -1 -1 -1
3 3 3 3 2 2 2 2 2 1 1 1 1 1 1 1 1 0 -0 -0 -0 -0 -0 -1 -1 -1 -0 -1 -1 -1 -1 -1 -1 -1 -1 -1 -1 -1
3 3 2 2 2 2 2 1 1 1 1 1 1 1 1 1 0 0 -0 -1 -1 -1 -1 -1 -1 -1 -1 -1 -1 -1 -1 -1 -1 -1 -1 -1 -1 -1
2 2 2 2 2 2 1 1 1 1 0 0 0 0 0 0 0 -0 -0 -1 -1 -1 -1 -1 -1 -2 -2 -1 -1 -1 -1 -1 -1 -1 -1 -1 -1 -1
2 2 2 2 1 1 1 1 1 0 0 -0 -0 -0 -0 -0 -0 -0 -0 -1 -1 -1 -1 -1 -1 -2 -2 -2 -2 -1 -1 -1 -1 -1 -1 -1 -1 -1
1 1 1 1 1 1 1 1 0 -0 -0 -1 -1 -1 -1 -1 -1 -1 -1 -1 -1 -1 -1 -1 -1 -1 -2 -2 -2 -2 -1 -1 -2 -1 -1 -1 -1 -1
1 1 1 1 0 0 0 0 -0 -0 -1 -1 -1 -1 -1 -1 -1 -1 -1 -1 -1 -1 -1 -1 -1 -1 -2 -2 -2 -2 -2 -2 -2 -2 -2 -2 -2 -2
0 0 0 0 -0 -0 -0 -0 -1 -1 -1 -1 -1 -1 -1 -1 -1 -1 -1 -1 -1 -1 -1 -1 -1 -1 -2 -2 -2 -2 -2 -2 -2 -2 -2 -2 -2 -2
-0 -0 -0 -0 -1 -1 -1 -1 -1 -1 -1 -1 -1 -1 -1 -1 -1 -1 -1 -1 -1 -1 -1 -1 -1 -1 -2 -2 -2 -2 -2 -2 -2 -2 -2 -2 -2 -2
-1 -1 -1 -1 -1 -1 -1 -1 -1 -1 -2 -2 -2 -2 -2 -2 -2 -2 -1 -2 -1 -1 -1 -2 -2 -2 -2 -2 -2 -2 -2 -2 -2 -2 -2 -2 -2 -2
-1 -1 -1 -1 -1 -1 -1 -2 -2 -2 -2 -2 -2 -2 -2 -2 -2 -2 -2 -2 -2 -2 -2 -2 -2 -2 -2 -3 -2 -2 -2 -2 -2 -2 -2 -2 -2 -2
-1 -1 -1 -1 -1 -2 -2 -2 -2 -2 -2 -2 -2 -2 -2 -2 -2 -2 -2 -2 -2 -2 -2 -2 -2 -2 -3 -3 -3 -2 -2 -2 -2 -3 -2 -2 -2 -2
-2 -2 -2 -2 -2 -2 -2 -2 -2 -2 -2 -2 -2 -2 -2 -2 -2 -2 -2 -2 -2 -2 -2 -2 -2 -2 -3 -3 -3 -3 -2 -2 -2 -2 -2 -3 -3 -3
-2 -2 -2 -2 -2 -2 -2 -2 -2 -2 -2 -2 -2 -2 -2 -2 -2 -2 -2 -2 -2 -2 -2 -2 -2 -2 -3 -3 -3 -3 -3 -3 -2 -2 -2 -2 -3 -3
Wind_Speed
4 4 3 3 3 3 3 3 3 3 4 3 2 3 5 7 8 9 9 10 12 12 12 12 13 14 15 15 16 16 16 16 17 17 17 18 19 19
3 4 3 3 3 2 3 3 4 4 3 3 4 5 7 7 9 9 9 10 10 11 12 12 13 14 14 15 16 16 16 16 17 17 18 18 18 19
5 5 4 3 3 2 2 2 3 3 5 5 5 5 7 7 8 8 9 9 9 11 12 13 13 14 14 14 15 15 16 16 16 17 17 18 18 18
6 5 5 4 4 3 2 3 3 3 4 5 5 5 6 7 7 8 7 8 8 10 11 12 13 13 14 14 14 15 15 15 16 16 17 17 18 18
6 6 5 5 4 3 3 3 2 3 3 4 5 5 5 6 7 7 7 7 8 9 10 11 11 13 13 13 14 14 15 15 16 16 17 17 17 18
5 5 5 5 5 4 3 3 3 3 3 3 4 5 5 6 6 6 6 7 7 8 9 10 11 11 12 12 13 14 15 15 16 16 16 16 17 17
5 4 4 4 4 4 4 3 3 3 3 3 4 5 5 5 5 6 7 7 7 6 7 7 8 8 9 10 11 13 15 16 16 16 16 16 16 17
5 4 4 4 4 5 5 4 4 4 4 4 4 5 6 6 6 6 7 7 6 5 7 8 7 8 8 8 11 14 15 15 16 16 15 16 16 17
5 4 3 3 4 3 3 2 3 4 5 5 6 6 6 6 6 7 7 7 7 7 8 8 7 8 7 9 12 13 14 15 15 15 15 16 16 16
4 5 4 4 4 3 3 3 3 3 4 4 5 6 6 6 6 6 7 7 7 5 6 7 7 8 8 8 10 12 14 14 14 15 16 16 16 16
3 4 4 4 4 3 3 3 3 3 3 5 6 6 7 8 7 5 5 5 6 6 5 5 6 8 8 7 7 10 12 13 14 15 15 16 16 15
2 3 4 4 4 4 4 3 3 3 3 3 4 4 4 5 6 5 5 5 5 4 3 4 5 6 5 5 6 8 9 12 14 15 15 15 15 11
2 2 2 4 4 4 4 3 3 3 3 3 3 3 4 4 4 4 4 4 5 5 4 4 5 5 5 6 7 7 8 8 10 11 12 13 14 11
3 2 2 3 3 3 2 1 1 2 1 2 2 3 4 4 4 5 5 5 5 6 7 6 5 6 6 7 7 7 8 8 8 8 9 11 11 11
2 2 2 3 2 2 1 1 1 1 1 2 2 3 4 4 4 4 5 4 5 5 5 6 6 6 5 6 7 7 7 7 7 7 8 7 7 7
1 2 3 2 1 1 1 1 1 1 2 2 2 3 3 4 4 4 4 4 4 4 5 5 6 6 5 6 6 7 7 6 7 8 7 7 7 7
2 2 2 2 1 0 0 1 1 1 2 2 2 2 3 3 4 4 3 4 4 5 5 5 5 5 5 5 5 6 6 6 7 7 7 7 6 6
3 3 2 2 2 1 1 1 2 2 2 2 2 2 3 3 3 4 3 3 4 4 5 6 6 5 4 3 4 5 5 6 7 7 6 6 6 6
3 3 2 2 2 2 2 2 2 2 2 2 2 2 3 3 3 3 3 4 4 4 5 5 5 4 4 5 3 2 5 6 6 6 6 5 6 7
2 3 3 2 2 2 2 2 2 2 2 2 2 2 2 2 3 3 3 4 4 4 4 4 4 4 4 5 5 5 7 6 5 6 6 6 6 7
2 2 2 2 2 2 2 2 2 2 2 2 2 2 2 2 2 3 3 4 4 4 4 4 5 7 5 3 4 4 5 6 6 5 6 5 5 5
2 2 2 2 2 2 2 2 2 2 2 2 2 2 2 2 2 3 3 3 3 3 4 4 5 4 3 3 4 5 6 7 8 8 6 4 3 3
2 2 2 2 2 2 2 2 2 2 2 2 2 2 2 2 2 2 2 3 3 3 4 4 4 3 3 3 4 5 6 7 6 6 5 7 7 7
Wind_Direction
193 194 198 200 205 216 220 224 244 267 277 287 299 305 315 315 317 314 315 323 326 329 332 333 333 332 331 329 329 329 329 328 326 326 325 322 321 321
187 191 191 196 200 212 218 233 243 252 262 289 299 302 308 309 313 314 315 316 322 329 331 332 332 330 330 330 330 330 330 329 328 326 325 325 325 325
186 191 196 198 200 207 216 225 239 246 261 286 295 298 303 308 314 315 316 321 324 328 328 329 328 328 329 330 331 332 332 331 330 328 327 327 327 328
191 193 196 196 205 207 216 233 248 259 262 276 292 298 299 306 309 312 318 319 320 324 324 325 326 328 329 330 331 333 333 333 333 332 330 329 329 328
195 196 197 197 206 212 223 237 254 265 263 265 284 296 298 304 309 310 314 315 319 320 322 324 324 326 327 329 332 333 332 332 331 331 329 328 328 328
200 200 202 204 209 213 224 233 246 258 262 267 280 293 299 304 306 310 313 318 318 319 322 322 318 319 322 326 330 332 332 331 331 330 329 329 330 328
201 205 209 206 213 223 228 231 238 247 258 268 278 291 296 304 308 310 308 313 311 315 317 320 320 320 323 324 327 329 330 330 330 330 330 330 331 331
203 203 198 196 205 225 235 247 253 253 256 263 274 277 288 295 304 306 308 310 309 321 315 312 314 314 318 324 326 326 329 330 332 332 331 331 331 331
202 199 197 198 206 211 223 245 271 281 273 266 265 275 285 290 296 299 300 301 302 309 309 302 309 310 315 318 320 323 328 331 333 333 333 332 331 331
208 203 197 199 204 210 227 247 270 283 284 281 276 282 290 293 289 287 290 295 296 301 307 299 307 308 311 311 317 322 326 329 333 334 334 334 332 330
211 207 201 204 199 205 220 237 265 291 312 306 303 300 301 300 299 294 294 296 302 306 313 300 303 309 304 301 314 319 322 327 331 333 333 333 333 329
208 206 204 208 199 208 222 227 245 276 295 309 313 312 309 307 305 293 287 288 298 301 312 307 304 316 309 301 312 321 323 325 329 331 333 334 334 331
208 213 210 200 206 220 239 240 257 280 280 291 301 308 313 315 315 316 303 287 286 287 299 307 299 301 294 300 307 315 321 325 328 329 331 335 338 336
213 213 207 198 214 223 234 249 266 290 278 283 295 305 311 315 315 317 312 305 294 285 287 291 287 292 298 300 304 314 319 325 327 327 329 330 332 332
205 192 192 193 204 203 206 199 225 263 269 279 292 303 308 306 310 313 315 318 315 308 298 292 287 285 285 289 299 307 313 318 326 328 328 329 330 332
161 156 156 160 171 183 197 194 255 268 273 274 288 298 305 307 310 314 315 321 321 320 320 314 303 290 284 289 292 301 311 312 320 325 324 323 330 333
164 156 154 161 171 186 262 295 300 293 299 300 294 297 303 307 313 317 316 320 316 318 323 328 322 304 284 286 295 304 311 314 318 324 324 324 329 336
161 171 181 193 203 215 238 280 294 287 291 290 290 294 298 304 311 318 320 318 316 318 321 325 327 322 306 283 263 296 312 318 322 325 325 321 324 333
168 183 197 207 213 226 243 262 280 287 289 283 285 293 300 304 310 319 323 321 321 322 324 326 329 327 327 326 325 314 312 317 322 326 327 322 315 320
189 196 205 209 215 225 241 259 276 285 286 290 292 295 300 304 311 316 317 317 318 320 326 333 338 334 319 311 310 312 318 311 314 320 322 318 309 305
201 209 215 214 220 228 237 250 260 270 277 285 287 290 298 302 308 314 314 315 315 318 326 327 322 319 304 300 304 311 321 327 318 307 314 318 322 332
206 217 223 225 225 228 236 243 255 266 276 283 284 290 297 299 301 304 309 311 316 321 320 321 325 329 333 329 321 318 324 331 336 332 322 307 309 327
213 222 225 225 230 232 234 239 248 257 265 274 286 290 296 300 303 301 305 310 317 326 327 327 333 338 333 323 323 326 330 333 337 342 342 339 322 296
Height
1502 1503 1504 1505 1505 1506 1505 1506 1506 1505 1503 1501 1500 1498 1496 1494 1492 1489 1486 1483 1480 1477 1473 1470 1467 1463 1460 1456 1453 1450 1447 1444 1440 1437 1433 1430 1427 1423
1499 1500 1501 1502 1502 1502 1502 1503 1502 1502 1500 1497 1496 1495 1493 1491 1489 1486 1483 1480 1477 1474 1470 1467 1464 1460 1456 1453 1450 1447 1443 1440 1436 1433 1429 1426 1423 1419
1496 1497 1498 1499 1499 1499 1499 1499 1499 1499 1496 1494 1493 1492 1490 1488 1485 1483 1481 1477 1474 1471 1467 1464 1460 1457 1453 1450 1447 1443 1440 1436 1433 1429 1426 1422 1419 1415
1493 1494 1495 1496 1496 1496 1496 1496 1496 1495 1494 1491 1489 1488 1486 1484 1482 1480 1477 1474 1471 1468 1464 1461 1457 1454 1450 1447 1444 1440 1436 1433 1429 1426 1422 1419 1415 1412
1490 1491 1492 1492 1493 1493 1493 1493 1493 1492 1491 1488 1486 1485 1483 1481 1479 1476 1474 1471 1468 1465 1461 1457 1454 1451 1448 1444 1440 1437 1433 1430 1426 1422 1419 1415 1411 1408
1487 1488 1489 1489 1489 1489 1490 1490 1489 1489 1487 1486 1483 1481 1480 1478 1476 1473 1469 1467 1464 1461 1458 1455 1451 1448 1445 1441 1437 1434 1430 1427 1423 1419 1415 1412 1408 1404
1484 1485 1485 1486 1486 1486 1487 1486 1486 1485 1484 1482 1480 1478 1477 1475 1473 1470 1467 1463 1461 1458 1455 1452 1448 1445 1442 1438 1434 1431 1427 1424 1420 1416 1412 1409 1405 1401
1481 1481 1482 1483 1483 1483 1484 1483 1483 1482 1480 1479 1477 1475 1473 1472 1470 1467 1464 1461 1457 1455 1452 1448 1446 1442 1439 1435 1432 1428 1424 1421 1417 1413 1410 1406 1402 1399
1478 1478 1479 1479 1480 1480 1480 1480 1479 1479 1478 1476 1474 1472 1471 1469 1466 1464 1461 1459 1455 1452 1449 1445 1443 1439 1436 1433 1429 1425 1422 1418 1414 1411 1407 1404 1400 1396
1475 1475 1476 1476 1477 1477 1476 1476 1475 1475 1474 1473 1471 1469 1468 1466 1463 1461 1459 1455 1452 1450 1448 1443 1440 1437 1433 1430 1427 1423 1419 1416 1412 1409 1405 1401 1398 1394
1472 1472 1473 1473 1474 1474 1473 1472 1471 1471 1470 1469 1468 1466 1464 1463 1461 1458 1455 1453 1449 1447 1445 1441 1437 1434 1430 1427 1424 1420 1417 1414 1410 1406 1403 1399 1395 1392
1468 1469 1470 1470 1470 1470 1470 1469 1468 1467 1466 1465 1464 1463 1461 1459 1458 1456 1453 1450 1447 1444 1442 1439 1436 1433 1428 1425 1422 1418 1415 1411 1408 1405 1401 1397 1394 1390
1465 1466 1467 1467 1467 1467 1467 1466 1466 1465 1463 1462 1460 1459 1458 1456 1454 1453 1450 1448 1445 1442 1440 1437 1434 1431 1428 1423 1419 1417 1413 1409 1406 1402 1399 1396 1392 1389
1463 1463 1464 1464 1464 1464 1464 1463 1463 1462 1460 1459 1458 1456 1455 1453 1451 1449 1447 1445 1443 1440 1438 1435 1432 1429 1426 1422 1418 1414 1412 1408 1405 1401 1397 1394 1391 1388
1460 1460 1461 1461 1462 1461 1461 1460 1460 1459 1458 1456 1455 1454 1452 1451 1449 1447 1444 1442 1440 1438 1435 1433 1430 1428 1425 1421 1417 1413 1410 1406 1403 1400 1397 1393 1390 1387
1457 1457 1458 1459 1459 1459 1458 1457 1457 1456 1455 1454 1453 1452 1450 1448 1446 1444 1442 1440 1438 1435 1433 1431 1428 1426 1423 1420 1417 1413 1409 1406 1403 1400 1396 1393 1390 1387
1454 1454 1455 1455 1455 1455 1455 1455 1454 1454 1453 1452 1451 1449 1448 1446 1444 1443 1440 1438 1436 1433 1431 1429 1427 1424 1421 1419 1415 1412 1409 1406 1403 1399 1396 1392 1389 1386
1451 1451 1452 1452 1453 1452 1452 1452 1452 1451 1450 1449 1448 1447 1446 1444 1442 1441 1439 1437 1434 1432 1429 1427 1424 1422 1420 1417 1415 1412 1409 1405 1402 1399 1396 1392 1389 1387
1449 1449 1449 1450 1450 1450 1450 1450 1450 1449 1448 1447 1446 1445 1444 1443 1441 1439 1437 1435 1433 1431 1428 1426 1424 1421 1419 1416 1414 1412 1408 1405 1402 1399 1395 1392 1389 1386
1446 1446 1447 1448 1448 1448 1448 1448 1447 1447 1446 1445 1444 1443 1442 1441 1439 1438 1436 1434 1432 1430 1427 1425 1423 1421 1419 1417 1414 1411 1409 1405 1402 1399 1396 1393 1390 1387
1444 1444 1445 1446 1446 1446 1446 1446 1445 1445 1444 1443 1442 1442 1441 1440 1438 1436 1435 1433 1431 1429 1426 1424 1423 1422 1419 1417 1414 1410 1408 1406 1403 1399 1396 1393 1389 1387
1442 1442 1443 1444 1444 1444 1444 1443 1443 1443 1442 1441 1441 1440 1439 1438 1437 1435 1434 1432 1430 1428 1426 1424 1423 1421 1419 1416 1413 1410 1408 1406 1403 1400 1397 1394 1391 1388
1440 1441 1441 1441 1442 1442 1441 1441 1441 1441 1440 1440 1439 1438 1438 1437 1436 1434 1433 1431 1430 1428 1426 1424 1422 1421 1419 1416 1414 1411 1408 1406 1403 1400 1398 1396 1393 1390